| time (UTC) | temp F | wind direction | speed MPH | gust MPH | rain 1hr in | rain 24hr in | rain mn in | humidity % | barometer mb |
| 20260903170059 | 78 | 210 | 2.0 | 2.0 | 0.00 | 0.56 | 0.56 | 78 | 1013.8 |
| 20260903165556 | 78 | 235 | 4.0 | 6.0 | 0.00 | 0.56 | 0.56 | 80 | 1014.0 |
| 20260903165052 | 78 | 284 | 3.0 | 3.0 | 0.00 | 0.56 | 0.56 | 79 | 1014.1 |
| 20260903164547 | 78 | 301 | 2.0 | 3.0 | 0.00 | 0.56 | 0.56 | 79 | 1014.2 |
| 20260903164043 | 78 | 218 | 3.0 | 3.0 | 0.00 | 0.56 | 0.56 | 79 | 1014.3 |
| 20260903163543 | 78 | 213 | 5.0 | 7.0 | 0.00 | 0.56 | 0.56 | 83 | 1014.3 |
| 20260903163039 | 78 | 218 | 7.0 | 8.0 | 0.00 | 0.56 | 0.56 | 80 | 1014.4 |
| 20260903162535 | 77 | 257 | 3.0 | 3.0 | 0.00 | 0.56 | 0.56 | 81 | 1014.6 |
| 20260903162031 | 77 | 215 | 6.0 | 7.0 | 0.00 | 0.56 | 0.56 | 82 | 1014.5 |
| 20260903161526 | 77 | 226 | 4.0 | 5.0 | 0.00 | 0.56 | 0.56 | 82 | 1014.5 |
| 20260903161022 | 77 | 231 | 1.0 | 2.0 | 0.00 | 0.56 | 0.56 | 84 | 1014.6 |
| 20260903160520 | 75 | 229 | 4.0 | 5.0 | 0.00 | 0.56 | 0.56 | 85 | 1014.6 |
| 20260903160016 | 75 | 235 | 1.0 | 2.0 | 0.00 | 0.56 | 0.56 | 85 | 1014.7 |
| 20260903155514 | 75 | 221 | 5.0 | 6.0 | 0.00 | 0.56 | 0.56 | 87 | 1014.9 |
| 20260903155010 | 74 | 179 | 4.0 | 5.0 | 0.00 | 0.56 | 0.56 | 86 | 1015.0 |
| 20260903154506 | 74 | 235 | 1.0 | 1.0 | 0.00 | 0.56 | 0.56 | 88 | 1015.1 |
| 20260903154002 | 74 | 215 | 5.0 | 6.0 | 0.00 | 0.56 | 0.56 | 87 | 1015.0 |
| 20260903153457 | 74 | 241 | 4.0 | 5.0 | 0.00 | 0.56 | 0.56 | 88 | 1015.1 |
| 20260903152953 | 74 | 238 | 5.0 | 7.0 | 0.00 | 0.56 | 0.56 | 88 | 1015.3 |
| 20260903152448 | 74 | 224 | 4.0 | 6.0 | 0.00 | 0.56 | 0.56 | 88 | 1015.1 |
| 20260903151944 | 74 | 218 | 3.0 | 3.0 | 0.00 | 0.56 | 0.56 | 87 | 1014.9 |
| 20260903151438 | 74 | 214 | 4.0 | 5.0 | 0.00 | 0.56 | 0.56 | 88 | 1014.9 |
| 20260903150933 | 74 | 236 | 3.0 | 3.0 | 0.00 | 0.56 | 0.56 | 88 | 1015.1 |
| 20260903150422 | 74 | 223 | 3.0 | 3.0 | 0.00 | 0.56 | 0.56 | 87 | 1015.2 |
| 20260903145917 | 74 | 240 | 3.0 | 5.0 | 0.00 | 0.56 | 0.56 | 87 | 1015.1 |
| 20260903145412 | 73 | 287 | 3.0 | 5.0 | 0.00 | 0.56 | 0.56 | 88 | 1015.0 |
| 20260903144912 | 73 | 245 | 4.0 | 6.0 | 0.00 | 0.56 | 0.56 | 88 | 1014.8 |
| 20260903144401 | 73 | 222 | 5.0 | 6.0 | 0.00 | 0.56 | 0.56 | 88 | 1014.8 |
| 20260903143856 | 73 | 240 | 3.0 | 6.0 | 0.00 | 0.56 | 0.56 | 89 | 1015.0 |
| 20260903143354 | 73 | 234 | 5.0 | 6.0 | 0.00 | 0.56 | 0.56 | 88 | 1014.8 |
| 20260903142853 | 73 | 208 | 3.0 | 6.0 | 0.00 | 0.56 | 0.56 | 89 | 1014.9 |
| 20260903142349 | 72 | 216 | 4.0 | 5.0 | 0.00 | 0.56 | 0.56 | 90 | 1014.8 |
| 20260903141845 | 72 | 236 | 4.0 | 5.0 | 0.00 | 0.56 | 0.56 | 90 | 1014.8 |
| 20260903141341 | 72 | 230 | 4.0 | 5.0 | 0.00 | 0.56 | 0.56 | 91 | 1015.0 |
| 20260903140836 | 72 | 234 | 6.0 | 7.0 | 0.00 | 0.56 | 0.56 | 92 | 1014.9 |
| 20260903140331 | 72 | 237 | 4.0 | 5.0 | 0.00 | 0.56 | 0.56 | 92 | 1014.9 |
| 20260903135827 | 72 | 202 | 4.0 | 5.0 | 0.00 | 0.56 | 0.56 | 92 | 1014.8 |
| 20260903135322 | 71 | 223 | 2.0 | 3.0 | 0.00 | 0.56 | 0.56 | 92 | 1014.7 |
| 20260903134821 | 71 | 228 | 1.0 | 2.0 | 0.00 | 0.56 | 0.56 | 93 | 1014.9 |
| 20260903134316 | 71 | 225 | 4.0 | 5.0 | 0.00 | 0.56 | 0.56 | 93 | 1014.7 |
| 20260903133814 | 71 | 206 | 3.0 | 5.0 | 0.00 | 0.56 | 0.56 | 93 | 1014.9 |
| 20260903133310 | 71 | 215 | 4.0 | 5.0 | 0.00 | 0.56 | 0.56 | 93 | 1014.8 |
| 20260903132804 | 70 | 205 | 3.0 | 3.0 | 0.00 | 0.56 | 0.56 | 94 | 1014.6 |
| 20260903132300 | 70 | 208 | 4.0 | 5.0 | 0.00 | 0.56 | 0.56 | 94 | 1014.9 |
| 20260903131755 | 71 | 244 | 5.0 | 6.0 | 0.00 | 0.56 | 0.56 | 94 | 1014.7 |
| 20260903131254 | 71 | 179 | 5.0 | 6.0 | 0.00 | 0.56 | 0.56 | 95 | 1014.8 |
| 20260903130749 | 70 | 218 | 3.0 | 3.0 | 0.00 | 0.56 | 0.56 | 97 | 1014.9 |
| 20260903130244 | 69 | 229 | 3.0 | 5.0 | 0.00 | 0.56 | 0.56 | 97 | 1015.1 |
| 20260903125742 | 69 | 212 | 2.0 | 2.0 | 0.00 | 0.56 | 0.56 | 98 | 1014.9 |
| 20260903125238 | 69 | 235 | 2.0 | 2.0 | 0.00 | 0.56 | 0.56 | 98 | 1015.0 |
| 20260903124737 | 69 | 233 | 2.0 | 2.0 | 0.00 | 0.56 | 0.56 | 98 | 1014.9 |
| 20260903124233 | 69 | 268 | 1.0 | 1.0 | 0.00 | 0.56 | 0.56 | 99 | 1015.3 |
| 20260903123731 | 68 | 260 | 1.0 | 1.0 | 0.00 | 0.56 | 0.56 | 99 | 1015.1 |
| 20260903123231 | 68 | 246 | 2.0 | 2.0 | 0.00 | 0.56 | 0.56 | 99 | 1015.1 |
| 20260903122729 | 68 | 232 | 0.0 | 1.0 | 0.00 | 0.56 | 0.56 | 99 | 1015.0 |
| 20260903122224 | 68 | 250 | 1.0 | 2.0 | 0.00 | 0.56 | 0.56 | 99 | 1014.8 |
| 20260903121723 | 68 | 275 | 1.0 | 1.0 | 0.00 | 0.56 | 0.56 | 99 | 1015.0 |
| 20260903121219 | 67 | 257 | 1.0 | 2.0 | 0.00 | 0.56 | 0.56 | 99 | 1014.8 |
| 20260903120718 | 67 | 312 | 1.0 | 2.0 | 0.00 | 0.56 | 0.56 | 99 | 1014.8 |
| 20260903120212 | 67 | 268 | 0.0 | 0.0 | 0.00 | 0.56 | 0.56 | 99 | 1014.7 |
| 20260903115710 | 67 | 283 | 0.0 | 0.0 | 0.00 | 0.56 | 0.56 | 99 | 1014.7 |
| 20260903115206 | 66 | 259 | 0.0 | 0.0 | 0.00 | 0.56 | 0.56 | 99 | 1014.8 |
| 20260903114701 | 66 | 250 | 0.0 | 0.0 | 0.00 | 0.56 | 0.56 | 99 | 1014.8 |
| 20260903114156 | 65 | 265 | 0.0 | 0.0 | 0.00 | 0.56 | 0.56 | 99 | 1015.1 |
| 20260903113652 | 65 | 244 | 0.0 | 1.0 | 0.00 | 0.56 | 0.56 | 99 | 1014.8 |
| 20260903113148 | 65 | 241 | 0.0 | 1.0 | 0.00 | 0.56 | 0.56 | 99 | 1014.8 |
| 20260903112643 | 65 | 222 | 1.0 | 1.0 | 0.00 | 0.56 | 0.56 | 99 | 1014.7 |
| 20260903112138 | 65 | 283 | 0.0 | 0.0 | 0.00 | 0.56 | 0.56 | 99 | 1014.7 |
| 20260903111637 | 65 | 265 | 0.0 | 0.0 | 0.00 | 0.56 | 0.56 | 99 | 1014.9 |
| 20260903111133 | 65 | 260 | 0.0 | 0.0 | 0.00 | 0.56 | 0.56 | 99 | 1014.5 |
| 20260903110629 | 65 | 236 | 1.0 | 1.0 | 0.00 | 0.56 | 0.56 | 99 | 1014.6 |
| 20260903110124 | 65 | 270 | 0.0 | 1.0 | 0.00 | 0.56 | 0.56 | 99 | 1014.7 |
| 20260903105618 | 65 | 282 | 1.0 | 1.0 | 0.00 | 0.56 | 0.56 | 99 | 1014.8 |
| 20260903105108 | 65 | 279 | 0.0 | 1.0 | 0.00 | 0.56 | 0.56 | 99 | 1014.6 |
| 20260903104608 | 65 | 308 | 0.0 | 1.0 | 0.00 | 0.56 | 0.56 | 99 | 1014.5 |
| 20260903104103 | 65 | 313 | 1.0 | 1.0 | 0.00 | 0.56 | 0.56 | 99 | 1014.6 |
| 20260903103559 | 65 | 55 | 1.0 | 1.0 | 0.00 | 0.56 | 0.56 | 99 | 1014.3 |
| 20260903103055 | 65 | 268 | 0.0 | 0.0 | 0.00 | 0.56 | 0.56 | 99 | 1014.7 |
| 20260903102550 | 65 | 262 | 0.0 | 0.0 | 0.00 | 0.56 | 0.56 | 99 | 1014.6 |
| 20260903102049 | 65 | 261 | 0.0 | 0.0 | 0.00 | 0.56 | 0.56 | 99 | 1014.6 |
| 20260903101544 | 65 | 260 | 1.0 | 1.0 | 0.00 | 0.56 | 0.56 | 99 | 1014.6 |
| 20260903101039 | 65 | 274 | 0.0 | 0.0 | 0.00 | 0.56 | 0.56 | 99 | 1014.7 |
| 20260903100534 | 65 | 237 | 0.0 | 1.0 | 0.00 | 0.56 | 0.56 | 99 | 1014.7 |
| 20260903100033 | 65 | 257 | 0.0 | 0.0 | 0.00 | 0.56 | 0.56 | 99 | 1014.5 |
| 20260903095531 | 65 | 234 | 0.0 | 0.0 | 0.00 | 0.56 | 0.56 | 99 | 1014.6 |
| 20260903095026 | 65 | 274 | 1.0 | 1.0 | 0.00 | 0.56 | 0.56 | 99 | 1014.7 |
| 20260903094526 | 65 | 248 | 1.0 | 1.0 | 0.00 | 0.56 | 0.56 | 99 | 1014.6 |
| 20260903094021 | 65 | 242 | 1.0 | 2.0 | 0.00 | 0.56 | 0.56 | 99 | 1014.5 |
| 20260903093516 | 65 | 274 | 0.0 | 0.0 | 0.00 | 0.56 | 0.56 | 99 | 1014.5 |
| 20260903093011 | 65 | 257 | 0.0 | 1.0 | 0.00 | 0.56 | 0.56 | 99 | 1014.7 |
| 20260903092510 | 65 | 268 | 1.0 | 1.0 | 0.05 | 0.56 | 0.56 | 99 | 1014.6 |
| 20260903092005 | 65 | 251 | 1.0 | 1.0 | 0.05 | 0.56 | 0.56 | 99 | 1014.7 |
| 20260903091503 | 65 | 268 | 1.0 | 1.0 | 0.00 | 0.55 | 0.55 | 99 | 1014.7 |
| 20260903090958 | 65 | 269 | 0.0 | 1.0 | 0.00 | 0.55 | 0.55 | 99 | 1014.7 |
| 20260903090454 | 66 | 252 | 0.0 | 1.0 | 0.00 | 0.55 | 0.55 | 99 | 1014.8 |
| 20260903085952 | 66 | 246 | 0.0 | 1.0 | 0.00 | 0.55 | 0.55 | 99 | 1014.9 |
| 20260903085451 | 65 | 238 | 0.0 | 0.0 | 0.00 | 0.55 | 0.55 | 99 | 1014.7 |
| 20260903084947 | 66 | 285 | 0.0 | 0.0 | 0.00 | 0.55 | 0.55 | 99 | 1014.8 |
| 20260903084444 | 65 | 266 | 0.0 | 0.0 | 0.00 | 0.55 | 0.55 | 98 | 1014.5 |
| 20260903083939 | 65 | 299 | 1.0 | 1.0 | 0.00 | 0.55 | 0.55 | 98 | 1014.7 |
| 20260903083436 | 66 | 105 | 1.0 | 1.0 | 0.00 | 0.55 | 0.55 | 98 | 1014.6 |
| 20260903082935 | 66 | 246 | 0.0 | 1.0 | 0.00 | 0.55 | 0.55 | 98 | 1014.8 |
| 20260903082430 | 66 | 229 | 1.0 | 1.0 | 0.00 | 0.55 | 0.55 | 98 | 1014.7 |
| 20260903081924 | 66 | 232 | 0.0 | 1.0 | 0.00 | 0.55 | 0.55 | 98 | 1014.7 |
| 20260903081420 | 66 | 253 | 0.0 | 0.0 | 0.00 | 0.55 | 0.55 | 98 | 1014.6 |
| 20260903080916 | 66 | 254 | 0.0 | 0.0 | 0.00 | 0.55 | 0.55 | 98 | 1014.7 |
| 20260903080412 | 66 | 253 | 0.0 | 0.0 | 0.00 | 0.55 | 0.55 | 98 | 1014.6 |
| 20260903075907 | 66 | 256 | 0.0 | 0.0 | 0.00 | 0.55 | 0.55 | 98 | 1014.6 |
| 20260903075403 | 66 | 270 | 0.0 | 0.0 | 0.00 | 0.55 | 0.55 | 98 | 1014.7 |
| 20260903074857 | 66 | 260 | 0.0 | 0.0 | 0.00 | 0.55 | 0.55 | 98 | 1014.7 |
| 20260903074351 | 66 | 273 | 0.0 | 0.0 | 0.00 | 0.55 | 0.55 | 98 | 1014.7 |
| 20260903073847 | 66 | 286 | 0.0 | 0.0 | 0.00 | 0.55 | 0.55 | 98 | 1014.7 |
| 20260903073341 | 66 | 269 | 0.0 | 0.0 | 0.00 | 0.55 | 0.55 | 98 | 1014.8 |
| 20260903072837 | 66 | 273 | 0.0 | 0.0 | 0.07 | 0.55 | 0.55 | 98 | 1014.9 |
| 20260903072333 | 66 | 266 | 1.0 | 1.0 | 0.07 | 0.55 | 0.55 | 98 | 1014.7 |
| 20260903071830 | 66 | 227 | 2.0 | 3.0 | 0.00 | 0.54 | 0.54 | 97 | 1014.4 |
| 20260903071326 | 66 | 231 | 3.0 | 3.0 | 0.00 | 0.54 | 0.54 | 98 | 1014.5 |
| 20260903070820 | 66 | 271 | 3.0 | 5.0 | 0.00 | 0.54 | 0.54 | 97 | 1014.6 |
| 20260903070316 | 66 | 224 | 4.0 | 5.0 | 0.00 | 0.54 | 0.54 | 97 | 1014.6 |
| 20260903065811 | 66 | 270 | 1.0 | 1.0 | 0.00 | 0.54 | 0.54 | 97 | 1014.7 |
| 20260903065310 | 67 | 241 | 0.0 | 1.0 | 0.00 | 0.54 | 0.54 | 97 | 1014.7 |
| 20260903064809 | 67 | 264 | 1.0 | 1.0 | 0.00 | 0.54 | 0.54 | 97 | 1014.8 |
| 20260903064305 | 67 | 264 | 0.0 | 0.0 | 0.00 | 0.54 | 0.54 | 97 | 1014.8 |
| 20260903063801 | 67 | 211 | 3.0 | 3.0 | 0.00 | 0.54 | 0.54 | 97 | 1014.7 |
| 20260903063255 | 67 | 256 | 0.0 | 0.0 | 0.00 | 0.54 | 0.54 | 97 | 1014.8 |
| 20260903062751 | 67 | 278 | 0.0 | 0.0 | 0.00 | 0.54 | 0.54 | 97 | 1014.8 |
| 20260903062250 | 67 | 274 | 0.0 | 0.0 | 0.00 | 0.54 | 0.54 | 97 | 1014.9 |
| 20260903061747 | 67 | 222 | 7.0 | 9.0 | 0.00 | 0.54 | 0.54 | 97 | 1015.0 |
| 20260903061246 | 67 | 212 | 5.0 | 6.0 | 0.00 | 0.54 | 0.54 | 97 | 1014.9 |
| 20260903060742 | 67 | 231 | 5.0 | 7.0 | 0.00 | 0.54 | 0.54 | 97 | 1014.9 |
| 20260903060241 | 67 | 227 | 5.0 | 6.0 | 0.00 | 0.54 | 0.54 | 97 | 1015.1 |
| 20260903055733 | 67 | 214 | 6.0 | 8.0 | 0.00 | 0.54 | 0.54 | 97 | 1015.0 |
| 20260903055232 | 67 | 235 | 5.0 | 6.0 | 0.07 | 0.54 | 0.54 | 97 | 1015.0 |
| 20260903054726 | 68 | 204 | 7.0 | 8.0 | 0.07 | 0.54 | 0.54 | 97 | 1015.2 |
| 20260903054221 | 67 | 238 | 3.0 | 3.0 | 0.59 | 0.53 | 0.53 | 97 | 1014.9 |
| 20260903053718 | 67 | 209 | 5.0 | 6.0 | 1.72 | 0.53 | 0.53 | 97 | 1015.0 |
| 20260903053213 | 67 | 209 | 4.0 | 6.0 | 1.44 | 0.46 | 0.46 | 97 | 1014.8 |
| 20260903052709 | 68 | 192 | 7.0 | 8.0 | 0.59 | 0.27 | 0.27 | 97 | 1015.3 |
| 20260903052204 | 68 | 266 | 0.0 | 0.0 | 0.50 | 0.22 | 0.22 | 97 | 1015.4 |
| 20260903051659 | 68 | 339 | 4.0 | 5.0 | 0.17 | 0.16 | 0.16 | 97 | 1015.8 |
| 20260903051154 | 68 | 313 | 3.0 | 3.0 | 0.05 | 0.14 | 0.14 | 96 | 1015.6 |
| 20260903050650 | 68 | 278 | 2.0 | 2.0 | 0.00 | 0.13 | 0.13 | 96 | 1015.2 |
| 20260903050149 | 68 | 304 | 1.0 | 1.0 | 0.00 | 0.13 | 0.13 | 96 | 1015.0 |
| 20260903045644 | 68 | 238 | 8.0 | 11.0 | 0.07 | 0.13 | 0.13 | 96 | 1014.7 |
| 20260903045140 | 68 | 218 | 8.0 | 9.0 | 0.12 | 0.13 | 0.13 | 96 | 1014.8 |
| 20260903044635 | 68 | 211 | 9.0 | 15.0 | 0.12 | 0.12 | 0.12 | 96 | 1014.7 |
| 20260903044126 | 68 | 210 | 15.0 | 18.0 | 0.12 | 0.11 | 0.11 | 96 | 1014.9 |
| 20260903043622 | 68 | 213 | 14.0 | 15.0 | 0.17 | 0.10 | 0.10 | 97 | 1015.1 |
| 20260903043121 | 68 | 210 | 11.0 | 13.0 | 0.24 | 0.09 | 0.09 | 97 | 1015.4 |
| 20260903042620 | 68 | 215 | 9.0 | 9.0 | 0.26 | 0.07 | 0.07 | 97 | 1015.5 |
| 20260903042116 | 68 | 237 | 9.0 | 10.0 | 0.19 | 0.05 | 0.05 | 97 | 1015.9 |
| 20260903041613 | 68 | 206 | 11.0 | 14.0 | 0.05 | 0.03 | 0.03 | 97 | 1016.2 |
| 20260903041108 | 68 | 213 | 8.0 | 9.0 | 0.12 | 0.03 | 0.03 | 98 | 1016.6 |
| 20260903040607 | 68 | 226 | 7.0 | 9.0 | 0.19 | 0.02 | 0.02 | 98 | 1017.1 |
| 20260903040104 | 67 | 239 | 3.0 | 3.0 | 0.12 | 1.51 | 1.51 | 98 | 1017.6 |
| 20260903035558 | 67 | 276 | 7.0 | 8.0 | 0.12 | 1.50 | 1.50 | 97 | 1017.5 |
| 20260903035054 | 67 | 314 | 3.0 | 3.0 | 0.12 | 1.49 | 1.49 | 97 | 1015.9 |
| 20260903034549 | 67 | 234 | 4.0 | 5.0 | 0.05 | 1.48 | 1.48 | 98 | 1015.4 |
| 20260903034044 | 67 | 206 | 4.0 | 5.0 | 0.07 | 1.47 | 1.47 | 98 | 1015.1 |
| 20260903033539 | 66 | 244 | 2.0 | 2.0 | 0.12 | 1.47 | 1.47 | 98 | 1015.2 |
| 20260903033034 | 66 | 235 | 1.0 | 2.0 | 0.12 | 1.46 | 1.46 | 97 | 1015.2 |
| 20260903032529 | 66 | 304 | 0.0 | 1.0 | 0.07 | 1.45 | 1.45 | 97 | 1015.3 |
| 20260903032025 | 66 | 273 | 1.0 | 1.0 | 0.12 | 1.45 | 1.45 | 97 | 1015.4 |
| 20260903031524 | 65 | 235 | 1.0 | 1.0 | 0.12 | 1.44 | 1.44 | 97 | 1015.6 |
| 20260903031020 | 65 | 248 | 0.0 | 1.0 | 0.19 | 1.43 | 1.43 | 97 | 1015.9 |
| 20260903030515 | 66 | 296 | 1.0 | 1.0 | 0.19 | 1.42 | 1.42 | 97 | 1016.2 |
| 20260903030011 | 65 | 225 | 1.0 | 1.0 | 0.19 | 1.40 | 1.40 | 97 | 1016.3 |
| 20260903025506 | 66 | 280 | 1.0 | 1.0 | 0.17 | 1.39 | 1.39 | 97 | 1016.9 |
| 20260903025002 | 66 | 253 | 1.0 | 1.0 | 0.19 | 1.38 | 1.38 | 97 | 1017.0 |
| 20260903024501 | 66 | 222 | 3.0 | 5.0 | 0.19 | 1.36 | 1.36 | 96 | 1017.1 |
| 20260903023955 | 66 | 281 | 1.0 | 2.0 | 0.24 | 1.35 | 1.35 | 97 | 1017.1 |
| 20260903023452 | 65 | 262 | 1.0 | 1.0 | 0.31 | 1.33 | 1.33 | 97 | 1017.5 |
| 20260903022947 | 65 | 194 | 6.0 | 7.0 | 0.19 | 1.31 | 1.31 | 97 | 1016.6 |
| 20260903022446 | 65 | 191 | 8.0 | 9.0 | 0.19 | 1.29 | 1.29 | 97 | 1016.7 |
| 20260903021944 | 65 | 193 | 7.0 | 7.0 | 0.24 | 1.28 | 1.28 | 97 | 1016.6 |
| 20260903021440 | 65 | 133 | 5.0 | 6.0 | 0.28 | 1.26 | 1.26 | 97 | 1017.2 |
| 20260903020934 | 65 | 139 | 5.0 | 5.0 | 0.83 | 1.24 | 1.24 | 96 | 1017.6 |
| 20260903020430 | 65 | 236 | 1.0 | 1.0 | 2.46 | 1.21 | 1.21 | 96 | 1018.7 |
| 20260903015925 | 66 | 316 | 3.0 | 3.0 | 2.58 | 1.12 | 1.12 | 95 | 1018.8 |
| 20260903015420 | 68 | 265 | 10.0 | 17.0 | 0.90 | 0.84 | 0.84 | 93 | 1020.2 |
| 20260903014915 | 68 | 279 | 6.0 | 7.0 | 0.00 | 0.69 | 0.69 | 94 | 1018.1 |
| 20260903014409 | 68 | 339 | 2.0 | 2.0 | 0.07 | 0.69 | 0.69 | 93 | 1017.0 |
| 20260903013904 | 69 | 298 | 2.0 | 2.0 | 0.07 | 0.69 | 0.69 | 92 | 1016.6 |
| 20260903013404 | 69 | 332 | 2.0 | 2.0 | 0.00 | 0.68 | 0.68 | 92 | 1016.3 |
| 20260903012903 | 69 | 152 | 5.0 | 7.0 | 0.00 | 0.68 | 0.68 | 93 | 1016.5 |
| 20260903012403 | 69 | 145 | 5.0 | 7.0 | 0.00 | 0.68 | 0.68 | 93 | 1016.6 |
| 20260903011901 | 69 | 178 | 3.0 | 3.0 | 0.00 | 0.68 | 0.68 | 93 | 1016.8 |
| 20260903011356 | 69 | 277 | 0.0 | 1.0 | 0.00 | 0.68 | 0.68 | 92 | 1017.2 |
| 20260903010852 | 69 | 272 | 0.0 | 1.0 | 0.00 | 0.68 | 0.68 | 92 | 1017.0 |
| 20260903010347 | 69 | 219 | 1.0 | 1.0 | 0.00 | 0.68 | 0.68 | 92 | 1016.7 |
| 20260903005845 | 69 | 277 | 1.0 | 1.0 | 0.00 | 0.68 | 0.68 | 92 | 1016.3 |
| 20260903005340 | 69 | 70 | 4.0 | 5.0 | 0.00 | 0.68 | 0.68 | 91 | 1015.6 |
| 20260903004837 | 69 | 68 | 2.0 | 2.0 | 0.00 | 0.68 | 0.68 | 91 | 1015.8 |
| 20260903004332 | 69 | 139 | 5.0 | 6.0 | 0.00 | 0.68 | 0.68 | 91 | 1016.0 |
| 20260903003827 | 70 | 187 | 8.0 | 9.0 | 0.00 | 0.68 | 0.68 | 91 | 1016.0 |
| 20260903003322 | 69 | 167 | 7.0 | 9.0 | 0.00 | 0.68 | 0.68 | 91 | 1016.1 |
| 20260903002821 | 69 | 200 | 6.0 | 7.0 | 0.00 | 0.68 | 0.68 | 91 | 1016.3 |
| 20260903002321 | 69 | 194 | 5.0 | 5.0 | 0.00 | 0.68 | 0.68 | 91 | 1016.2 |
| 20260903001816 | 69 | 219 | 1.0 | 2.0 | 0.00 | 0.68 | 0.68 | 91 | 1016.5 |
| 20260903001312 | 69 | 227 | 0.0 | 1.0 | 0.00 | 0.68 | 0.68 | 91 | 1015.9 |
| 20260903000812 | 69 | 262 | 2.0 | 3.0 | 0.00 | 0.68 | 0.68 | 91 | 1016.0 |
| 20260903000307 | 69 | 145 | 6.0 | 7.0 | 0.00 | 0.68 | 0.68 | 91 | 1016.3 |
| 20260902235804 | 69 | 185 | 5.0 | 5.0 | 0.00 | 0.68 | 0.68 | 91 | 1016.0 |
| 20260902235300 | 69 | 215 | 6.0 | 7.0 | 0.00 | 0.68 | 0.68 | 91 | 1016.0 |
| 20260902234754 | 69 | 188 | 5.0 | 7.0 | 0.00 | 0.68 | 0.68 | 91 | 1015.6 |
| 20260902234253 | 69 | 198 | 10.0 | 11.0 | 0.00 | 0.68 | 0.68 | 91 | 1016.0 |
| 20260902233747 | 69 | 155 | 5.0 | 6.0 | 0.00 | 0.68 | 0.68 | 91 | 1015.9 |
| 20260902233242 | 70 | 142 | 6.0 | 6.0 | 0.00 | 0.68 | 0.68 | 91 | 1015.9 |
| 20260902232740 | 70 | 188 | 4.0 | 6.0 | 0.00 | 0.68 | 0.68 | 91 | 1016.2 |
| 20260902232235 | 70 | 195 | 5.0 | 6.0 | 0.00 | 0.68 | 0.68 | 91 | 1016.1 |
| 20260902231734 | 70 | 135 | 9.0 | 10.0 | 0.00 | 0.68 | 0.68 | 91 | 1016.0 |
| 20260902231230 | 70 | 171 | 4.0 | 6.0 | 0.00 | 0.68 | 0.68 | 91 | 1016.2 |
| 20260902230724 | 70 | 178 | 8.0 | 9.0 | 0.00 | 0.68 | 0.68 | 91 | 1015.9 |
| 20260902230223 | 70 | 170 | 7.0 | 8.0 | 0.00 | 0.68 | 0.68 | 91 | 1015.9 |
| 20260902225719 | 70 | 164 | 10.0 | 11.0 | 0.00 | 0.68 | 0.68 | 90 | 1015.9 |
| 20260902225219 | 70 | 145 | 6.0 | 8.0 | 0.00 | 0.68 | 0.68 | 90 | 1015.8 |
| 20260902224717 | 70 | 152 | 5.0 | 6.0 | 0.00 | 0.68 | 0.68 | 91 | 1015.8 |
| 20260902224212 | 70 | 119 | 9.0 | 10.0 | 0.00 | 0.68 | 0.68 | 91 | 1015.9 |
| 20260902223708 | 70 | 187 | 7.0 | 8.0 | 0.00 | 0.68 | 0.68 | 91 | 1016.0 |
| 20260902223208 | 70 | 156 | 8.0 | 8.0 | 0.00 | 0.68 | 0.68 | 91 | 1016.1 |
| 20260902222707 | 70 | 156 | 4.0 | 5.0 | 0.00 | 0.68 | 0.68 | 91 | 1016.3 |
| 20260902222206 | 70 | 170 | 5.0 | 6.0 | 0.00 | 0.68 | 0.68 | 91 | 1016.5 |
| 20260902221701 | 70 | 126 | 7.0 | 7.0 | 0.00 | 0.68 | 0.68 | 91 | 1016.6 |
| 20260902221155 | 71 | 127 | 5.0 | 6.0 | 0.00 | 0.68 | 0.68 | 91 | 1016.6 |
| 20260902220651 | 71 | 169 | 6.0 | 7.0 | 0.00 | 0.68 | 0.68 | 91 | 1016.5 |
| 20260902220145 | 71 | 148 | 7.0 | 9.0 | 0.00 | 0.68 | 0.68 | 90 | 1016.8 |
| 20260902215641 | 71 | 174 | 5.0 | 6.0 | 0.00 | 0.68 | 0.68 | 90 | 1016.8 |
| 20260902215136 | 71 | 163 | 9.0 | 11.0 | 0.00 | 0.68 | 0.68 | 90 | 1016.8 |
| 20260902214631 | 71 | 167 | 6.0 | 7.0 | 0.00 | 0.68 | 0.68 | 90 | 1016.8 |
| 20260902214130 | 71 | 168 | 4.0 | 5.0 | 0.00 | 0.68 | 0.68 | 90 | 1016.8 |
| 20260902213626 | 71 | 122 | 3.0 | 3.0 | 0.00 | 0.68 | 0.68 | 90 | 1016.8 |
| 20260902213125 | 72 | 157 | 10.0 | 11.0 | 0.00 | 0.68 | 0.68 | 89 | 1016.6 |
| 20260902212621 | 72 | 236 | 2.0 | 2.0 | 0.00 | 0.68 | 0.68 | 90 | 1016.5 |
| 20260902212117 | 72 | 199 | 4.0 | 5.0 | 0.00 | 0.68 | 0.68 | 89 | 1017.1 |
| 20260902211613 | 72 | 205 | 3.0 | 5.0 | 0.00 | 0.68 | 0.68 | 89 | 1016.7 |
| 20260902211108 | 72 | 194 | 5.0 | 6.0 | 0.00 | 0.68 | 0.68 | 89 | 1016.7 |
| 20260902210607 | 72 | 134 | 4.0 | 5.0 | 0.00 | 0.68 | 0.68 | 89 | 1016.8 |
| 20260902205601 | 72 | 182 | 4.0 | 5.0 | 0.00 | 0.68 | 0.68 | 88 | 1016.8 |
| 20260902205056 | 73 | 197 | 5.0 | 7.0 | 0.00 | 0.68 | 0.68 | 89 | 1016.6 |
| 20260902204550 | 72 | 225 | 2.0 | 2.0 | 0.00 | 0.68 | 0.68 | 89 | 1016.7 |
| 20260902204045 | 72 | 243 | 2.0 | 2.0 | 0.00 | 0.68 | 0.68 | 89 | 1016.7 |
| 20260902203541 | 72 | 236 | 2.0 | 3.0 | 0.00 | 0.68 | 0.68 | 89 | 1016.7 |
| 20260902203040 | 72 | 130 | 1.0 | 2.0 | 0.00 | 0.68 | 0.68 | 90 | 1016.5 |
| 20260902202536 | 72 | 195 | 7.0 | 9.0 | 0.00 | 0.68 | 0.68 | 89 | 1016.6 |
| 20260902202032 | 72 | 210 | 4.0 | 5.0 | 0.00 | 0.68 | 0.68 | 90 | 1016.8 |
| 20260902201528 | 72 | 179 | 7.0 | 8.0 | 0.00 | 0.68 | 0.68 | 89 | 1017.0 |
| 20260902201027 | 72 | 186 | 5.0 | 6.0 | 0.00 | 0.68 | 0.68 | 89 | 1017.0 |
| 20260902200522 | 72 | 214 | 5.0 | 7.0 | 0.00 | 0.68 | 0.68 | 88 | 1017.1 |
| 20260902200018 | 72 | 199 | 6.0 | 8.0 | 0.00 | 0.68 | 0.68 | 88 | 1017.0 |
| 20260902195514 | 73 | 191 | 9.0 | 10.0 | 0.00 | 0.68 | 0.68 | 88 | 1017.1 |
| 20260902195012 | 73 | 211 | 6.0 | 7.0 | 0.00 | 0.68 | 0.68 | 88 | 1017.0 |
| 20260902194507 | 73 | 209 | 10.0 | 10.0 | 0.00 | 0.68 | 0.68 | 87 | 1017.1 |
| 20260902194002 | 73 | 162 | 6.0 | 7.0 | 0.00 | 0.68 | 0.68 | 87 | 1017.4 |
| 20260902193458 | 72 | 213 | 3.0 | 3.0 | 0.00 | 0.68 | 0.68 | 88 | 1017.5 |
| 20260902192956 | 72 | 223 | 4.0 | 5.0 | 0.00 | 0.68 | 0.68 | 88 | 1017.5 |
| 20260902192456 | 72 | 195 | 3.0 | 3.0 | 0.00 | 0.68 | 0.68 | 88 | 1017.6 |
| 20260902191954 | 72 | 256 | 5.0 | 6.0 | 0.00 | 0.68 | 0.68 | 89 | 1017.6 |
| 20260902191450 | 71 | 250 | 1.0 | 1.0 | 0.00 | 0.68 | 0.68 | 88 | 1017.6 |
| 20260902190945 | 72 | 231 | 2.0 | 3.0 | 0.00 | 0.68 | 0.68 | 88 | 1017.4 |
| 20260902190440 | 72 | 194 | 7.0 | 9.0 | 0.00 | 0.68 | 0.68 | 88 | 1017.6 |
| 20260902185936 | 72 | 223 | 3.0 | 3.0 | 0.00 | 0.68 | 0.68 | 88 | 1017.5 |
| 20260902185432 | 72 | 63 | 3.0 | 5.0 | 0.00 | 0.68 | 0.68 | 87 | 1017.5 |
| 20260902184927 | 72 | 165 | 1.0 | 1.0 | 0.00 | 0.68 | 0.68 | 88 | 1017.3 |
| 20260902184422 | 72 | 277 | 0.0 | 0.0 | 0.00 | 0.68 | 0.68 | 88 | 1017.3 |
| 20260902183918 | 71 | 228 | 3.0 | 5.0 | 0.00 | 0.68 | 0.68 | 89 | 1017.5 |
| 20260902183414 | 71 | 184 | 7.0 | 8.0 | 0.00 | 0.68 | 0.68 | 88 | 1017.2 |
| 20260902182909 | 71 | 149 | 5.0 | 6.0 | 0.00 | 0.68 | 0.68 | 89 | 1017.7 |
| 20260902182406 | 71 | 180 | 4.0 | 5.0 | 0.00 | 0.68 | 0.68 | 89 | 1017.8 |
| 20260902181902 | 71 | 153 | 6.0 | 7.0 | 0.00 | 0.68 | 0.68 | 89 | 1017.7 |
| 20260902181357 | 71 | 160 | 9.0 | 13.0 | 0.00 | 0.68 | 0.68 | 88 | 1018.0 |
| 20260902180857 | 72 | 156 | 4.0 | 6.0 | 0.00 | 0.68 | 0.68 | 88 | 1017.9 |
| 20260902180352 | 72 | 202 | 7.0 | 9.0 | 0.00 | 0.68 | 0.68 | 87 | 1018.0 |
| 20260902175848 | 72 | 185 | 8.0 | 10.0 | 0.00 | 0.68 | 0.68 | 87 | 1018.0 |
| 20260902175343 | 72 | 186 | 7.0 | 8.0 | 0.00 | 0.68 | 0.68 | 88 | 1018.2 |
| 20260902174838 | 72 | 208 | 4.0 | 6.0 | 0.00 | 0.68 | 0.68 | 88 | 1018.2 |
| 20260902174335 | 73 | 213 | 2.0 | 3.0 | 0.00 | 0.68 | 0.68 | 88 | 1018.4 |
| 20260902173825 | 71 | 180 | 3.0 | 3.0 | 0.00 | 0.68 | 0.68 | 88 | 1018.1 |
| 20260902173324 | 71 | 192 | 5.0 | 6.0 | 0.00 | 0.68 | 0.68 | 88 | 1018.5 |
| 20260902172818 | 71 | 169 | 3.0 | 3.0 | 0.00 | 0.68 | 0.68 | 88 | 1018.6 |
| 20260902172313 | 72 | 233 | 3.0 | 3.0 | 0.00 | 0.68 | 0.68 | 88 | 1018.5 |
| 20260902171809 | 72 | 237 | 2.0 | 2.0 | 0.00 | 0.68 | 0.68 | 89 | 1018.3 |
| 20260902171303 | 71 | 274 | 1.0 | 1.0 | 0.00 | 0.68 | 0.68 | 91 | 1018.6 |
| 20260902170800 | 71 | 266 | 0.0 | 1.0 | 0.00 | 0.68 | 0.68 | 90 | 1018.7 |